[[{"header":{"parameterUnit":"m.s-1","parameterCategory":1,"la1":30.2991,"la2":30.254,"lo1":-89.0895,"lo2":-89.0444,"dy":0.0017,"dx":0.0017,"nx":28,"ny":28,"refTime":"2023-08-14T09:00:00:Z","depth":0,"parameterNumber":2,"parameterNumberName":"U-component_of_WINDS"},"data":[0,0,0,0,0,0,0,0,0,0,0,0,0,0,0,0,0,0,0,0,0,0,0,0,0,0,0,0,0,0,0,0,0,0,0,0,0,0,0,0,0,0,0,0,0,0,0,0,0,0,0,0,0,0,0,0,0,0,2.1419,2.1418,0,2.1393,2.1393,2.1393,2.1369,2.1368,2.1368,2.1368,2.1341,2.1341,2.134,0,0,0,0,0,0,0,0,0,0,0,0,0,2.1447,2.1446,2.1419,2.1418,2.1418,2.1393,2.1393,2.1393,2.1369,2.1368,2.1368,2.1368,2.1341,2.1341,2.134,0,0,0,0,0,0,0,0,0,0,0,0,0,2.1429,2.1446,2.1419,2.1403,2.1401,2.1393,2.1393,2.1393,2.1369,2.1368,2.1368,2.1368,2.1341,2.1341,2.134,2.1345,0,0,2.1338,2.1338,0,0,0,0,0,0,0,0,2.143,2.1428,2.1406,2.1404,2.1402,2.1384,2.1393,2.1377,2.1369,2.1381,2.1368,2.1367,2.1356,2.1354,2.135,2.1344,2.1343,2.1338,2.1338,2.1338,2.1337,0,0,0,0,0,0,0,2.1432,2.1429,2.1409,2.1405,2.1403,2.1398,2.1395,2.139,2.1371,2.138,2.1378,2.1376,2.1355,2.1351,2.1349,2.1342,2.1338,2.1338,2.1337,2.1337,2.1342,2.1342,0,0,0,0,0,0,2.1435,2.143,2.1409,2.1408,2.1416,2.1398,2.1394,2.139,2.1371,2.1368,2.1376,2.1375,2.1352,2.135,2.1348,2.1354,2.1338,2.1337,2.1337,2.1341,2.1342,2.1342,0,0,0,0,0,0,2.1436,2.1434,2.141,2.1419,2.1415,2.1398,2.1393,2.139,2.1386,2.1368,2.1365,2.1376,2.1352,2.1349,2.1347,2.1352,2.1337,2.1336,2.134,2.1341,2.1342,2.1365,0,0,0,0,0,0,2.1437,2.1434,2.1435,2.1419,2.1415,2.1409,2.1394,2.139,2.1385,2.1383,2.1367,2.1364,2.1351,2.1348,2.1346,2.1351,2.1336,2.134,2.1341,2.1342,2.1363,2.1366,2.1368,0,0,0,0,0,2.1438,2.1442,2.1435,2.1433,2.1416,2.1409,2.1407,2.1393,2.1386,2.1387,2.1376,2.1364,2.1353,2.1348,2.1346,2.1351,2.1339,2.134,2.1342,2.1362,2.1365,2.1368,0,0,0,0,0,0,2.1458,2.1439,2.1432,2.1431,2.1422,2.1405,2.1406,2.1397,2.1389,2.1387,2.137,2.1367,2.1366,2.1358,2.1353,2.1356,2.1344,2.1345,2.1361,2.1364,2.1366,2.1368,2.1335,0,0,0,0,0,2.1463,2.1459,2.1443,2.1443,2.1439,2.1424,2.142,2.141,2.14,2.1396,2.1385,2.1376,2.137,2.1367,2.136,2.1363,2.1359,2.1365,2.1368,2.137,2.1371,2.1373,2.1375,2.1346,2.1346,2.1346,0,0,2.1472,2.1461,2.1459,2.1447,2.1439,2.1436,2.1421,2.1417,2.1415,2.1396,2.1393,2.1385,2.1373,2.1374,2.1373,2.1367,2.1379,2.1372,2.1374,2.1373,2.1374,2.1377,2.138,2.1347,2.1347,2.1346,0,0,2.1486,2.1477,2.1478,2.1471,2.1459,2.1449,2.145,2.1435,2.1429,2.1427,2.1413,2.141,2.14,2.1393,2.1388,2.1404,2.1393,2.1402,2.1415,2.1418,2.142,2.1422,2.1428,2.143,2.1403,2.1403,2.1403,0,2.1498,2.1492,2.1479,2.1477,2.1473,2.1457,2.1457,2.1451,2.1438,2.1436,2.1429,2.1418,2.1409,2.1409,2.1413,2.1409,2.1409,2.1403,2.1421,2.1423,2.1424,2.143,2.1432,2.1404,2.1404,2.1404,2.1404,0,2.1509,2.1505,2.1507,2.1496,2.1492,2.1491,2.1478,2.1476,2.1467,2.1458,2.1457,2.1446,2.1438,2.1438,2.1428,2.1436,2.1433,2.1424,2.1412,2.1428,2.1433,2.1435,2.1406,2.1406,2.1405,2.1405,0,0,2.1533,2.1516,2.1517,2.1513,2.1501,2.1498,2.1497,2.1491,2.1489,2.1482,2.1481,2.1475,2.1467,2.1462,2.1452,2.1455,2.1469,2.1445,2.1445,2.145,2.1477,2.1484,2.1486,2.1462,2.1462,2.1463,2.1478,0,2.1545,2.1543,2.1532,2.1533,2.1531,2.1517,2.1517,2.151,2.1502,2.1499,2.1491,2.1487,2.1477,2.1474,2.1476,2.1466,2.1474,2.1465,2.1461,2.1461,2.1464,2.1489,2.1495,2.1511,2.148,2.1481,2.1481,0,2.1558,2.1553,2.1555,2.1544,2.1543,2.1543,2.1537,2.1534,2.1526,2.1521,2.1517,2.1506,2.1506,2.1496,2.1496,2.149,2.1489,2.1484,2.1485,2.1483,2.1471,2.1488,2.1515,2.1517,2.1484,2.1483,2.1483,0,2.1576,2.157,2.157,2.1567,2.1555,2.1555,2.155,2.1542,2.154,2.1535,2.1533,2.1528,2.1525,2.1522,2.1511,2.1504,2.1512,2.1501,2.1508,2.1508,2.1509,2.1509,2.1536,2.1509,2.1509,2.1509,2.1509,0,2.1591,2.1592,2.1578,2.1578,2.158,2.1569,2.1571,2.1565,2.1558,2.1557,2.1545,2.1545,2.1531,2.1529,2.1521,2.1523,2.1522,2.1517,2.1515,2.1518,2.1519,2.1516,2.1515,2.1509,2.1509,2.1509,2.1509,0,2.161,2.1601,2.1601,2.1591,2.1588,2.159,2.1581,2.1581,2.1574,2.1574,2.1573,2.1561,2.1559,2.1549,2.1543,2.1538,2.1542,2.1538,2.1545,2.1543,2.1551,2.1551,2.1577,2.158,2.1551,2.1552,2.1552,0,2.162,2.1621,2.1612,2.1611,2.1607,2.1605,2.1603,2.1592,2.159,2.1583,2.1584,2.1581,2.1578,2.1575,2.1567,2.1563,2.1559,2.1568,2.1558,2.1562,2.1559,2.1559,2.1559,2.157,2.1571,2.1571,2.1571,0,2.1638,2.1634,2.1632,2.1628,2.1626,2.1623,2.1619,2.1619,2.1607,2.1606,2.1604,2.1601,2.1597,2.1595,2.159,2.1585,2.1577,2.1575,2.1576,2.1579,2.1583,2.1582,2.1551,2.1574,2.1574,2.1573,2.1573,2.1573,2.1653,2.1654,2.1649,2.1647,2.1643,2.164,2.164,2.1634,2.1632,2.1628,2.1622,2.1621,2.1616,2.1609,2.1605,2.1605,2.1599,2.1601,2.1602,2.1603,2.1604,2.1584,2.1604,2.1604,2.1604,2.1604,2.1604,0,2.1671,2.1668,2.1666,2.1661,2.166,2.1654,2.1649,2.1649,2.1648,2.1644,2.1642,2.164,2.1639,2.1631,2.1628,2.163,2.1626,2.1629,2.1629,2.1628,2.1609,2.1608,2.1633,2.1633,2.1633,2.1633,2.1633,2.1633,2.168,2.1682,2.1678,2.1679,2.1675,2.1674,2.1673,2.167,2.1667,2.1666,2.1665,2.166,2.1655,2.1652,2.1651,2.1649,2.1648,2.1653,2.165,2.1632,2.1629,2.1627,2.1626,2.1653,2.1653,2.1669,2.1669,2.1669]},{"header":{"parameterUnit":"m.s-1","parameterCategory":1,"la1":30.2991,"la2":30.254,"lo1":-89.0895,"lo2":-89.0444,"dy":0.0017,"dx":0.0017,"nx":28,"ny":28,"refTime":"2023-08-14T09:00:00:Z","depth":0,"parameterNumber":3,"parameterNumberName":"V-component_of_WINDS"},"data":[0,0,0,0,0,0,0,0,0,0,0,0,0,0,0,0,0,0,0,0,0,0,0,0,0,0,0,0,0,0,0,0,0,0,0,0,0,0,0,0,0,0,0,0,0,0,0,0,0,0,0,0,0,0,0,0,0,0,6.1369,6.1372,0,6.1697,6.1701,6.1705,6.1646,6.1641,6.1635,6.1629,6.1959,6.1973,6.1987,0,0,0,0,0,0,0,0,0,0,0,0,0,6.0681,6.0694,6.1368,6.1373,6.1377,6.1697,6.1701,6.1706,6.1647,6.164,6.1633,6.1627,6.1955,6.1971,6.1988,0,0,0,0,0,0,0,0,0,0,0,0,0,6.0991,6.0698,6.1368,6.1386,6.1391,6.1696,6.1701,6.1707,6.1649,6.164,6.1632,6.1623,6.1949,6.197,6.1991,6.2295,0,0,6.2056,6.2065,0,0,0,0,0,0,0,0,6.0974,6.1017,6.138,6.1386,6.1392,6.1622,6.158,6.1904,6.1651,6.1551,6.1629,6.1619,6.1854,6.1882,6.1963,6.2311,6.2325,6.2057,6.207,6.2079,6.2085,0,0,0,0,0,0,0,6.0953,6.1002,6.1498,6.1385,6.1392,6.1375,6.141,6.1641,6.1747,6.1559,6.1556,6.1596,6.1855,6.1942,6.197,6.233,6.2057,6.2076,6.2089,6.2097,6.2939,6.2948,0,0,0,0,0,0,6.0926,6.0985,6.1488,6.1508,6.1158,6.1395,6.1433,6.1557,6.1744,6.1764,6.1603,6.1592,6.191,6.1945,6.1981,6.2347,6.2079,6.2099,6.2111,6.2929,6.2941,6.2951,0,0,0,0,0,0,6.0912,6.0972,6.1475,6.1246,6.1308,6.1416,6.1555,6.1568,6.1655,6.1777,6.1795,6.1673,6.1905,6.1951,6.2217,6.2358,6.2109,6.2128,6.2918,6.2933,6.2946,6.3084,0,0,0,0,0,0,6.0892,6.0967,6.1086,6.1249,6.1321,6.1708,6.1564,6.1581,6.1693,6.1681,6.1848,6.1867,6.1902,6.2186,6.2238,6.2383,6.2145,6.2906,6.2925,6.2942,6.3067,6.3101,6.313,0,0,0,0,0,6.0868,6.1111,6.1093,6.1154,6.1473,6.1717,6.1757,6.1794,6.1704,6.1823,6.1901,6.1862,6.2334,6.2213,6.2272,6.2425,6.2897,6.2919,6.294,6.3053,6.3094,6.3129,0,0,0,0,0,0,6.0961,6.1133,6.1114,6.1418,6.1553,6.1706,6.1858,6.1838,6.2,6.1982,6.2019,6.2057,6.2326,6.2402,6.2264,6.2727,6.2602,6.2637,6.2668,6.2708,6.2739,6.2715,6.2162,0,0,0,0,0,6.1017,6.1203,6.1342,6.1597,6.1666,6.175,6.1858,6.1875,6.2015,6.2071,6.2169,6.2304,6.2483,6.26,6.2771,6.3077,6.3111,6.3211,6.3243,6.3268,6.3297,6.3461,6.3506,6.3022,6.3022,6.3022,0,0,6.1134,6.1251,6.1366,6.1618,6.1725,6.1914,6.1799,6.2004,6.2143,6.2102,6.2359,6.2434,6.2588,6.2874,6.3005,6.2946,6.3438,6.3296,6.3315,6.333,6.3487,6.3533,6.3574,6.3037,6.3034,6.3032,0,0,6.1444,6.1553,6.1775,6.1884,6.2048,6.2102,6.2155,6.2312,6.2361,6.2619,6.2591,6.2755,6.3063,6.3173,6.3269,6.3617,6.3585,6.3671,6.3836,6.3995,6.4033,6.4067,6.4188,6.4232,6.37,6.37,6.37,0,6.1568,6.1855,6.1891,6.21,6.221,6.2182,6.2405,6.2508,6.2718,6.2793,6.2724,6.3108,6.321,6.3519,6.3604,6.3684,6.3743,6.3652,6.4025,6.4059,6.4091,6.4207,6.4253,6.3709,6.3708,6.3707,6.3707,0,6.1998,6.2197,6.2356,6.2561,6.2689,6.2904,6.297,6.3094,6.3099,6.3159,6.342,6.354,6.3734,6.3809,6.3815,6.4119,6.4077,6.4017,6.3891,6.4146,6.4256,6.4301,6.3723,6.3719,6.3717,6.3714,0,0,6.2377,6.2598,6.2656,6.2747,6.2924,6.3077,6.3288,6.3479,6.3584,6.3729,6.3904,6.4164,6.4109,6.4217,6.4235,6.4375,6.4639,6.4297,6.4301,6.4354,6.4977,6.502,6.5071,6.4619,6.4628,6.4635,6.4963,0,6.2701,6.3078,6.3116,6.3451,6.3633,6.3607,6.3791,6.3917,6.3978,6.4138,6.4204,6.4387,6.4301,6.4366,6.4503,6.4578,6.4764,6.4555,6.478,6.4787,6.4741,6.5129,6.5177,6.5481,6.5006,6.5014,6.5019,0,6.3132,6.329,6.3645,6.3794,6.3871,6.4036,6.4212,6.4367,6.4508,6.4542,6.4662,6.4661,6.4874,6.4741,6.5034,6.489,6.4984,6.5034,6.5046,6.5068,6.4918,6.5159,6.5579,6.5624,6.5087,6.5082,6.5077,0,6.337,6.3672,6.3922,6.4001,6.4182,6.4298,6.4377,6.451,6.4621,6.4774,6.4846,6.5021,6.5117,6.525,6.5294,6.5194,6.5584,6.5455,6.5615,6.5614,6.5698,6.5692,6.6138,6.5761,6.576,6.5759,6.5758,0,6.3728,6.3945,6.4031,6.4185,6.4426,6.4465,6.4701,6.4774,6.4892,6.5056,6.5044,6.5198,6.5248,6.5409,6.5444,6.5679,6.5722,6.5753,6.576,6.5755,6.575,6.5816,6.5795,6.5772,6.5769,6.5767,6.5764,0,6.4035,6.4102,6.4373,6.4521,6.4563,6.4734,6.4859,6.5005,6.5062,6.5271,6.5321,6.5411,6.56,6.5657,6.5884,6.5907,6.6182,6.617,6.6135,6.6135,6.6291,6.6275,6.6793,6.6862,6.6441,6.6445,6.6449,0,6.4259,6.4426,6.4592,6.4703,6.4788,6.4966,6.5079,6.5123,6.5241,6.5412,6.5536,6.5723,6.5876,6.6178,6.6261,6.6433,6.6424,6.6594,6.645,6.6438,6.6425,6.6414,6.6429,6.6621,6.6625,6.6629,6.6632,0,6.4649,6.4673,6.4839,6.5017,6.5153,6.5294,6.5429,6.5519,6.5581,6.5714,6.5908,6.6026,6.6257,6.6442,6.6617,6.6694,6.6673,6.6676,6.6722,6.6718,6.669,6.6705,6.6207,6.6664,6.6661,6.6659,6.6657,6.6656,6.492,6.5066,6.5205,6.539,6.5496,6.5622,6.5766,6.5842,6.6005,6.6199,6.6213,6.6422,6.6553,6.6786,6.6873,6.7034,6.6985,6.7051,6.7068,6.7084,6.7095,6.6665,6.7066,6.7065,6.7064,6.7064,6.7063,0,6.5308,6.5396,6.5565,6.5756,6.5899,6.5868,6.6015,6.6137,6.6322,6.6448,6.6598,6.6818,6.6996,6.7092,6.7269,6.7379,6.7373,6.7424,6.7416,6.7433,6.7131,6.7073,6.7425,6.7425,6.7425,6.7425,6.7425,6.7425,6.5526,6.5771,6.5811,6.6106,6.6191,6.6398,6.6484,6.6599,6.6699,6.6947,6.7096,6.7158,6.7271,6.7455,6.7615,6.7638,6.7703,6.7759,6.7776,6.7492,6.7455,6.742,6.7365,6.7773,6.7774,6.8065,6.8068,6.807]}]]